Regional Weather Roundup
Issued by NWS

Home | Current Version | Previous Version | Text Only | Print | Product List | Glossary Off
Versions: 1 2 3 4 5 6 7 8 9 10 11 12 13 14 15 16 17 18 19 20 21 22 23 24 25 26 27 28 29 30 31 32 33 34 35 36 37 38 39 40 41 42 43 44 45 46 47 48 49 50

000
ASUS43 KBIS 251810
RWRND
NORTH DAKOTA REGIONAL WEATHER ROUNDUP
NATIONAL WEATHER SERVICE EASTERN NORTH DAKOTA/GRAND FORKS ND
100 PM CDT THU MAY 25 2017

  NOTE: "FAIR" INDICATES FEW OR NO CLOUDS BELOW 12,000 FEET WITH NO
  SIGNIFICANT WEATHER AND/OR OBSTRUCTIONS TO VISIBILITY.

NDZ001>003-009>011-017-251900-
...NORTHWEST NORTH DAKOTA...

CITY           SKY/WX    TMP DP  RH WIND       PRES   REMARKS
WILLISTON      CLOUDY    58  45  62 S13       29.36S
6HR MIN TEMP:  48; 6HR MAX TEMP:  58;

MINOT          FAIR      69  37  30 S22       29.36S
MINOT AFB      FAIR      68  40  36 W20G26    29.35
6HR MIN TEMP:  51; 6HR MAX TEMP:  68;

$$

NDZ018>021-031>035-040>046-251900-
...SOUTHWEST NORTH DAKOTA...

CITY           SKY/WX    TMP DP  RH WIND       PRES   REMARKS
BISMARCK       FAIR      72  37  28 NW8       29.43S
DICKINSON      FAIR      63  37  38 W28G38    29.42R
GARRISON         N/A     67  37  33 SW20G28   29.39R
HETTINGER      FAIR      67  35  30 W18G29    29.48S
$$

NDZ004>008-012>016-024-026-027-054-251900-
...NORTHEAST NORTH DAKOTA...

CITY           SKY/WX    TMP DP  RH WIND       PRES   REMARKS
GRAND FORKS    CLOUDY    68  47  46 SE25G35   29.49F
GRAND FORKS AF FAIR      66  46  47 S25G38    29.47
DEVILS LAKE    CLOUDY    61  47  59 S15G21    29.45S
$$

NDZ022-023-025-028>030-036>039-047>053-251900-
...SOUTHEAST NORTH DAKOTA...

CITY           SKY/WX    TMP DP  RH WIND       PRES   REMARKS
JAMESTOWN      CLOUDY    63  48  58 S16G24    29.44R
FARGO          FAIR      69  47  45 SE18G38   29.50F
WAHPETON       FAIR      68  45  42 S26G36    29.52S
$$




USA.gov is the U.S. government's official web portal to all federal, state and local government web resources and services.